Regional Weather Roundup
Issued by NWS Mt. Holly, NJ

Home | Current Version | Previous Version | Text Only | Print | Product List | Glossary On
Versions: 1 2 3 4 5 6 7 8 9 10 11 12 13 14 15 16 17 18 19 20 21 22 23 24 25 26 27 28 29 30 31 32 33 34 35 36 37 38 39 40 41 42 43 44 45 46 47 48 49 50
000
ASUS41 KPHI 180811
RWRPHI

REGIONAL WEATHER ROUNDUP
NATIONAL WEATHER SERVICE MOUNT HOLLY NJ
400 AM EDT SAT APR 18 2015

NOTE:  "FAIR" INDICATES FEW OR NO CLOUDS BELOW 12,000 FEET WITH NO
SIGNIFICANT WEATHER AND/OR OBSTRUCTIONS TO VISIBILITY.

 * = STATION DOES NOT REPORT PRECIPITATION (E.G. RAIN, SNOW, ETC.)
        OR FOG.

NJZ015>026-180900-
SOUTHERN NEW JERSEY

CITY           SKY/WX    TMP DP  RH WIND       PRES   REMARKS
POMONA         CLEAR     53  51  93 N6        29.96S FOG
MILLVILLE      FOG       52  51  97 CALM      29.96S VSB 1/2
WRIGHTSTOWN    FOG       54  54 100 CALM      29.94S VSB 1/2
MOUNT HOLLY    MOCLDY    53  52  96 CALM      29.98R FOG
TRENTON        CLEAR     52  49  89 S3        29.97S

$$
NJZ001>014-180900-
NORTHERN NEW JERSEY

CITY           SKY/WX    TMP DP  RH WIND       PRES   REMARKS
SUSSEX         CLEAR     45  42  89 CALM      29.99S
ANDOVER*         N/A     46  45  96 CALM      29.98S
MORRISTOWN     CLEAR     46  43  87 CALM      29.98R FOG
NEWARK         MOCLDY    59  46  62 N6        29.97R
TETERBORO      CLEAR     53  46  77 CALM      29.95S
CALDWELL       CLEAR     50  44  80 CALM      29.97S
SOMERVILLE     PTCLDY    46  43  89 CALM      29.96S
ALLAIRE*       MOCLDY    57  48  72 N3        29.97S
TOMS RIVER*    CLOUDY    46  45  93 CALM      29.98S VSB 1

$$
PAZ043-044-047-054-055-060>062-066>071-180900-
EASTERN PENNSYLVANIA

CITY           SKY/WX    TMP DP  RH WIND       PRES   REMARKS
PHILADELPHIA   MOCLDY    58  53  84 E3        29.98S
NORTH PHILA    CLOUDY    60  51  72 CALM      29.99R
BLUE BELL      CLEAR     54  52  94 CALM      29.97S
DOYLESTOWN     CLEAR     52  50  93 CALM      29.97S
QUAKERTOWN*    CLEAR     46  46 100 CALM      29.99S
POTTSTOWN      CLEAR     50  49  96 CALM      30.00R
LANCASTER      CLEAR     51  47  86 W3        29.98S
COATESVILLE    CLEAR     57  50  77 N6        29.99S
READING        CLEAR     52  49  89 CALM      29.98S
ALLENTOWN      CLEAR     47  45  93 NW3       29.99S FOG
MOUNT POCONO   CLEAR     46  43  89 NW6       29.99S
HAZLETON       FOG       45  45 100 CALM      30.02F VSB 1/2
WILKES BARRE   CLEAR     48  44  86 E5        29.99S

$$
DEZALL-MDZ008-012-015-019-020-180900-
DELAWARE AND EASTERN MARYLAND

CITY           SKY/WX    TMP DP  RH WIND       PRES   REMARKS
WILMINGTON     CLEAR     55  51  86 NW8       29.97S
DOVER          CLEAR     57  57 100 NW2       29.92F
GEORGETOWN     FOG       59  58  96 CALM      29.96F VSB 1/4
EASTON         FOG       59  59 100 CALM      30.00F VSB 1/2
PATUXENT       MOCLDY    56  54  93 CALM      29.96S
OCEAN CITY     CLOUDY    56  55  97 CALM      29.96F FOG
WALLOPS ISLAND PTCLDY    58  57  97 CALM      29.95F
CAMBRIDGE      CLOUDY    59  55  88 CALM      29.96S VSB 1/2
SALISBURY      FOG       57  56  96 CALM      29.95F VSB 1/4

$$
PAZ001-021-NYZ056-072-MDZ011-DCZ001-180900-
OTHER NEARBY LOCATIONS

CITY           SKY/WX    TMP DP  RH WIND       PRES   REMARKS
HARRISBURG     PTCLDY    50  47  89 CALM      29.98S
STATE COLLEGE  CLEAR     53  46  77 CALM      30.01F
WILLIAMSPORT   CLEAR     47  44  90 CALM      30.00S
BINGHAMTON     CLEAR     46  44  93 SW7       29.98S
NEW YORK CITY  CLEAR     60  44  55 CALM      29.99S
BALTIMORE      PTCLDY    55  53  93 CALM      29.97F
WASHINGTON DC  MOCLDY    63  57  81 CALM      29.98S

$$


USA.gov is the U.S. government's official web portal to all federal, state and local government web resources and services.